When you browse on this site, cookies collect data to enhance your experience and personalize the content and advertising you see.
Visit our Privacy Policy to learn more. By continuing to use the site, you agree to this use of cookies and data.
  • In Belgium
  • List of Countries
  • For 7 days
  • Water Temperature
  • Satellite Maps
  • Weather Map
  • Weather Widgets
  • user-avatar
    Login

    Hourly Weather Charleroi

    Today, 15 December, Saturday

    Time Temperature Precipitation Wind Pressure Humidity
    00:00 -1°C° 0 mm 1 mps 757 mmHg 70%
    01:00 -1°C° 0 mm 1 mps 757 mmHg 71%
    02:00 -1°C° 0 mm 1 mps 757 mmHg 71%
    03:00 -1°C° 0 mm 1 mps 757 mmHg 71%
    04:00 -3°C° 0 mm 2 mps 757 mmHg 72%
    05:00 -4°C° 0 mm 2 mps 756 mmHg 73%
    06:00 -4°C° 0 mm 2 mps 756 mmHg 74%
    07:00 -3°C° 0 mm 2 mps 756 mmHg 73%
    08:00 -4°C° 0 mm 3 mps 756 mmHg 71%
    09:00 -4°C° 0 mm 3 mps 756 mmHg 70%
    10:00 -3°C° 0 mm 4 mps 756 mmHg 65%
    11:00 -2°C° 0 mm 4 mps 755 mmHg 60%
    12:00 -1°C° 0 mm 5 mps 755 mmHg 55%
    13:00 -1°C° 0 mm 5 mps 754 mmHg 56%
    14:00 -1°C° 0 mm 5 mps 753 mmHg 58%
    15:00 -1°C° 0 mm 5 mps 752 mmHg 59%
    16:00 -2°C° 0 mm 6 mps 752 mmHg 60%
    17:00 -2°C° 0 mm 6 mps 751 mmHg 60%
    18:00 -2°C° 0 mm 7 mps 750 mmHg 60%
    19:00 -2°C° 1.1 mm 7 mps 749 mmHg 67%
    20:00 -2°C° 1.1 mm 7 mps 749 mmHg 73%
    21:00 -2°C° 1.1 mm 8 mps 748 mmHg 79%
    22:00 -2°C° 1.5 mm 8 mps 747 mmHg 82%
    23:00 -2°C° 1.5 mm 8 mps 747 mmHg 86%

    Tomorrow, 16 December, Sunday

    Time Temperature Precipitation Wind Pressure Humidity
    00:00 -2°C° 1.5 mm 8 mps 746 mmHg 89%
    01:00 -2°C° 0.2 mm 7 mps 746 mmHg 90%
    02:00 -1°C° 0.2 mm 6 mps 745 mmHg 92%
    03:00 -1°C° 0.2 mm 6 mps 745 mmHg 93%
    04:00 0°C° 0 mm 5 mps 745 mmHg 94%
    05:00 0°C° 0 mm 5 mps 745 mmHg 95%
    06:00 0°C° 0 mm 4 mps 745 mmHg 96%
    07:00 0°C° 0 mm 4 mps 746 mmHg 97%
    08:00 +2°C° 0 mm 3 mps 746 mmHg 97%
    09:00 +2°C° 0 mm 3 mps 746 mmHg 98%
    10:00 +2°C° 0.3 mm 3 mps 746 mmHg 98%
    11:00 +2°C° 0.3 mm 3 mps 746 mmHg 98%
    12:00 +3°C° 0.3 mm 3 mps 747 mmHg 98%
    13:00 +3°C° 0.2 mm 3 mps 747 mmHg 98%
    14:00 +3°C° 0.2 mm 3 mps 747 mmHg 97%
    15:00 +3°C° 0.2 mm 4 mps 747 mmHg 97%
    16:00 +1°C° 0 mm 4 mps 747 mmHg 97%
    17:00 +1°C° 0 mm 4 mps 748 mmHg 96%
    18:00 +1°C° 0 mm 4 mps 748 mmHg 96%
    19:00 +1°C° 0 mm 4 mps 748 mmHg 96%
    20:00 +2°C° 0 mm 3 mps 749 mmHg 96%
    21:00 +2°C° 0 mm 3 mps 749 mmHg 96%
    22:00 +1°C° 0 mm 4 mps 749 mmHg 96%
    23:00 +1°C° 0 mm 4 mps 749 mmHg 96%

    Day after tomorrow, 17 December, Monday

    Time Temperature Precipitation Wind Pressure Humidity
    00:00 +1°C° 0 mm 4 mps 749 mmHg 96%
    01:00 +1°C° 0.5 mm 4 mps 749 mmHg 96%
    02:00 +2°C° 0.5 mm 3 mps 749 mmHg 96%
    03:00 +2°C° 0.5 mm 3 mps 749 mmHg 96%
    04:00 +2°C° 0.8 mm 3 mps 749 mmHg 96%
    05:00 +2°C° 0.8 mm 3 mps 750 mmHg 97%
    06:00 +3°C° 0.8 mm 2 mps 750 mmHg 97%
    07:00 +3°C° 0 mm 2 mps 751 mmHg 97%
    08:00 +3°C° 0 mm 2 mps 752 mmHg 97%
    09:00 +3°C° 0 mm 2 mps 753 mmHg 97%
    10:00 +4°C° 0 mm 2 mps 753 mmHg 94%
    11:00 +5°C° 0 mm 2 mps 754 mmHg 92%
    12:00 +5°C° 0 mm 3 mps 754 mmHg 89%
    13:00 +4°C° 0 mm 3 mps 754 mmHg 91%
    14:00 +4°C° 0 mm 3 mps 755 mmHg 92%
    15:00 +5°C° 0 mm 2 mps 755 mmHg 94%
    16:00 +3°C° 0 mm 3 mps 756 mmHg 94%
    17:00 +3°C° 0 mm 3 mps 756 mmHg 95%
    18:00 +3°C° 0 mm 3 mps 757 mmHg 95%
    19:00 +3°C° 0 mm 3 mps 757 mmHg 95%
    20:00 +3°C° 0 mm 3 mps 757 mmHg 95%
    21:00 +1°C° 0 mm 4 mps 758 mmHg 95%
    22:00 +1°C° 0 mm 4 mps 758 mmHg 95%
    23:00 +1°C° 0 mm 4 mps 758 mmHg 95%

    18 December, Tuesday

    Time Temperature Precipitation Wind Pressure Humidity
    00:00 +1°C° 0 mm 4 mps 758 mmHg 94%
    01:00 +1°C° 0 mm 4 mps 757 mmHg 94%
    02:00 +1°C° 0 mm 4 mps 757 mmHg 95%
    03:00 +3°C° 0 mm 4 mps 757 mmHg 95%
    04:00 +2°C° 0 mm 5 mps 757 mmHg 95%
    05:00 +2°C° 0 mm 5 mps 757 mmHg 94%
    06:00 +2°C° 0 mm 5 mps 757 mmHg 94%
    07:00 +2°C° 0 mm 5 mps 756 mmHg 93%
    08:00 +2°C° 0 mm 5 mps 756 mmHg 92%
    09:00 +2°C° 0 mm 6 mps 756 mmHg 90%
    10:00 +3°C° 0 mm 6 mps 755 mmHg 84%
    11:00 +4°C° 0 mm 6 mps 754 mmHg 78%
    12:00 +5°C° 0 mm 7 mps 754 mmHg 72%
    13:00 +4°C° 0 mm 7 mps 753 mmHg 71%
    14:00 +4°C° 0 mm 6 mps 752 mmHg 71%
    15:00 +4°C° 0 mm 6 mps 751 mmHg 70%
    16:00 +3°C° 0 mm 7 mps 751 mmHg 70%
    17:00 +3°C° 0 mm 7 mps 750 mmHg 69%
    18:00 +2°C° 0 mm 7 mps 750 mmHg 69%
    19:00 +3°C° 0 mm 7 mps 749 mmHg 70%
    20:00 +3°C° 0 mm 7 mps 749 mmHg 71%
    21:00 +3°C° 0 mm 7 mps 749 mmHg 71%
    22:00 +3°C° 0 mm 7 mps 748 mmHg 74%
    23:00 +4°C° 0 mm 7 mps 748 mmHg 76%

    19 December, Wednesday

    Time Temperature Precipitation Wind Pressure Humidity
    00:00 +4°C° 0 mm 7 mps 748 mmHg 78%
    01:00 +4°C° 0.3 mm 7 mps 748 mmHg 81%
    02:00 +4°C° 0.3 mm 7 mps 747 mmHg 84%
    03:00 +4°C° 0.3 mm 6 mps 747 mmHg 87%
    04:00 +4°C° 0.5 mm 6 mps 748 mmHg 88%
    05:00 +5°C° 0.5 mm 6 mps 748 mmHg 89%
    06:00 +5°C° 0.5 mm 6 mps 748 mmHg 91%
    07:00 +6°C° 0.1 mm 5 mps 748 mmHg 92%
    08:00 +6°C° 0.1 mm 4 mps 749 mmHg 93%
    09:00 +7°C° 0.1 mm 3 mps 749 mmHg 94%
    10:00 +7°C° 0 mm 3 mps 750 mmHg 93%
    11:00 +8°C° 0 mm 3 mps 750 mmHg 91%
    12:00 +8°C° 0 mm 2 mps 750 mmHg 90%
    13:00 +8°C° 0 mm 2 mps 750 mmHg 91%
    14:00 +7°C° 0 mm 2 mps 750 mmHg 92%
    15:00 +7°C° 0 mm 2 mps 750 mmHg 93%
    16:00 +7°C° 0 mm 2 mps 750 mmHg 94%
    17:00 +6°C° 0 mm 2 mps 750 mmHg 94%
    18:00 +6°C° 0 mm 2 mps 750 mmHg 94%
    19:00 +6°C° 0 mm 2 mps 750 mmHg 94%
    20:00 +5°C° 0 mm 2 mps 750 mmHg 94%
    21:00 +5°C° 0 mm 2 mps 750 mmHg 94%
    22:00 +5°C° 0 mm 2 mps 750 mmHg 95%
    23:00 +5°C° 0 mm 2 mps 750 mmHg 95%

    20 December, Thursday

    Time Temperature Precipitation Wind Pressure Humidity
    00:00 +5°C° 0 mm 2 mps 751 mmHg 95%
    01:00 +5°C° 0 mm 2 mps 751 mmHg 95%
    02:00 +5°C° 0 mm 2 mps 751 mmHg 95%
    03:00 +5°C° 0 mm 2 mps 751 mmHg 96%
    04:00 +5°C° 0.1 mm 2 mps 751 mmHg 96%
    05:00 +5°C° 0.1 mm 2 mps 751 mmHg 96%
    06:00 +5°C° 0.1 mm 2 mps 752 mmHg 97%
    07:00 +5°C° 0.1 mm 2 mps 752 mmHg 96%
    08:00 +5°C° 0.1 mm 2 mps 752 mmHg 96%
    09:00 +5°C° 0.1 mm 2 mps 753 mmHg 96%
    10:00 +5°C° 0 mm 2 mps 753 mmHg 93%
    11:00 +6°C° 0 mm 2 mps 753 mmHg 90%
    12:00 +7°C° 0 mm 2 mps 753 mmHg 87%
    13:00 +7°C° 0 mm 2 mps 753 mmHg 88%
    14:00 +6°C° 0 mm 2 mps 754 mmHg 90%
    15:00 +6°C° 0 mm 2 mps 754 mmHg 92%
    16:00 +5°C° 0 mm 2 mps 754 mmHg 93%
    17:00 +5°C° 0 mm 2 mps 754 mmHg 94%
    18:00 +3°C° 0 mm 3 mps 755 mmHg 95%
    19:00 +3°C° 0 mm 3 mps 755 mmHg 95%
    20:00 +3°C° 0 mm 3 mps 755 mmHg 95%
    21:00 +2°C° 0 mm 3 mps 756 mmHg 95%
    22:00 +2°C° 0 mm 3 mps 756 mmHg 95%
    23:00 +2°C° 0 mm 3 mps 756 mmHg 96%
    Show more